This demonstration page uses our WeatherBlox Daily Observations layout. Learn more.

Left ArrowRight Arrow

Hourly Observations for November 5, 2022

Temp ( °F °C ) Dew Point ( °F °C ) Humidity (%) Winds ( mph kmh ) Pressure ( in mb ) Visibility ( mi km ) Precip ( " mm )
12:53 am 00:53 Clear 40 4.4 21 -6.1 46 46 N 3 6 29.96 1015 10 16 0.00 0.00
1:53 am 01:53 Clear 44 6.7 21 -6.1 39 39 W 3 6 29.94 1014 10 16 0.00 0.00
2:53 am 02:53 Clear 40 4.4 21 -6.1 46 46 Calm 29.94 1014 10 16 0.00 0.00
3:53 am 03:53 Clear 37 2.8 21 -6.1 52 52 SSE 6 9 29.93 1014 9 14 0.00 0.00
4:53 am 04:53 Clear 37 2.8 21 -6.1 52 52 SSW 7 11 29.90 1013 8 13 0.00 0.00
5:53 am 05:53 Clear 37 2.8 20 -6.7 50 50 SSW 6 9 29.90 1012 10 16 0.00 0.00
6:53 am 06:53 Clear 35 1.7 21 -6.1 56 56 Calm 29.91 1013 10 16 0.00 0.00
7:53 am 07:53 Hazy 35 1.7 21 -6.1 56 56 S 6 9 29.91 1013 5 8 0.00 0.00
8:53 am 08:53 Hazy 39 3.9 23 -5 52 52 SSW 7 11 29.90 1013 6 10 0.00 0.00
9:53 am 09:53 Sunny 51 10.6 24 -4.4 34 34 WSW 13 20 29.91 1013 10 16 0.00 0.00
10:53 am 10:53 Sunny 58 14.4 23 -5 26 26 WSW 17 28 29.90 1012 10 16 0.00 0.00
11:53 am 11:53 Sunny 62 16.7 22 -5.6 21 21 W 16 26 29.88 1012 10 16 0.00 0.00
12:53 pm 12:53 Sunny 66 18.9 22 -5.6 18 18 WSW 20 31 29.85 1011 10 16 0.00 0.00
1:53 pm 13:53 Sunny 70 21.1 21 -6.1 15 15 WSW 20 31 29.78 1008 10 16 0.00 0.00
2:53 pm 14:53 Sunny 73 22.8 19 -7.2 13 13 W 22 35 29.74 1007 10 16 0.00 0.00
3:53 pm 15:53 Sunny 75 23.9 19 -7.2 12 12 WSW 26 43 29.72 1007 10 16 0.00 0.00
4:53 pm 16:53 Sunny 73 22.8 19 -7.2 13 13 W 23 37 29.71 1006 10 16 0.00 0.00
5:53 pm 17:53 Sunny 72 22.2 19 -7.2 13 13 WSW 18 30 29.70 1006 10 16 0.00 0.00
6:53 pm 18:53 Sunny 68 20 20 -6.7 16 16 WSW 10 17 29.72 1006 10 16 0.00 0.00
7:53 pm 19:53 Clear 63 17.2 21 -6.1 20 20 WSW 9 15 29.74 1007 10 16 0.00 0.00
8:53 pm 20:53 Clear 62 16.7 21 -6.1 20 20 SW 10 17 29.75 1007 10 16 0.00 0.00
9:53 pm 21:53 Clear 59 15 22 -5.6 24 24 SSW 9 15 29.73 1007 10 16 0.00 0.00
10:53 pm 22:53 Clear 60 15.6 21 -6.1 22 22 SW 10 17 29.73 1007 10 16 0.00 0.00
11:53 pm 23:53 Clear 60 15.6 20 -6.7 21 21 WSW 10 17 29.72 1007 10 16 0.00 0.00

Powered by AerisWeather